Flag for U.S.A. Weather past 2 weeks in Monterey, California, U.S.A.

Now
53 °F

Overcast.


Feels Like: 51 °F
Forecast: 54 / 61 °F
Wind: 8 mph from Southwest

Location: Monterey Peninsula Airport

Current Time: May 24, 2015 at 6:24:15 AM

Latest Report: May 24, 2015 at 5:54 AM


Visibility: 10 mi

Pressure: 30.08 "Hg

Humidity: 83%

Dew point: 48 °F

Location of MontereyLocation

Historic Weather in Monterey — Graph

°F

Monterey temperature yesterday

Maximum temperature yesterday: 58 °F (at 11:54 AM)
Minimum temperature yesterday: 54 °F (at 8:02 AM)
Average temperature yesterday: 56 °F

Past Weeks' High & Low Weather Summary

 TemperatureHumidityPressure
High66 °F (May 22, 2:54 PM)94% (May 23, 8:02 AM)30.19 "Hg (May 23, 8:02 AM)
Low49 °F (May 15, 2:54 AM)43% (May 13, 12:54 PM)29.84 "Hg (May 14, 4:54 PM)
Average56 °F73%30.06 "Hg
* Reported May 9 4:54 AM — May 24 4:54 AM, Monterey, Weather by CustomWeather, © 2015

Note: Actual official high and low records may vary slightly from our data, if they occured in-between our weather recording intervals... More about our weather records

Advertising

Monterey weather history for previous 24 hours

 ConditionsComfort  
Time TempWeatherWind HumidityBarometerVisibility
4:54 AM
Sun, May 24
53 °FOvercast.7 mph83%30.07 "Hg10 mi
3:54 AM53 °FOvercast.5 mph83%30.06 "Hg10 mi
2:54 AM54 °FOvercast.3 mph80%30.08 "Hg10 mi
1:54 AM54 °FOvercast.3 mph80%30.09 "Hg10 mi
12:54 AM54 °FOvercast.5 mph80%30.12 "Hg10 mi
11:54 PM
Sat, May 23
54 °FOvercast.6 mph80%30.14 "Hg10 mi
10:54 PM55 °FOvercast.7 mph77%30.14 "Hg10 mi
9:54 PM56 °FOvercast.8 mph75%30.15 "Hg10 mi
8:54 PM56 °FOvercast.8 mph75%30.14 "Hg10 mi
7:54 PM56 °FOvercast.8 mph75%30.14 "Hg10 mi
6:54 PM57 °FOvercast.13 mph69%30.14 "Hg10 mi
5:54 PM57 °FOvercast.10 mph69%30.14 "Hg10 mi
4:54 PM58 °FOvercast.13 mph70%30.14 "Hg10 mi
3:54 PM58 °FOvercast.13 mph67%30.16 "Hg10 mi
2:54 PM57 °FMostly cloudy.10 mph72%30.17 "Hg9 mi
1:54 PM58 °FMostly cloudy.14 mph70%30.18 "Hg10 mi
12:54 PM58 °FMostly cloudy.8 mph70%30.19 "Hg10 mi
11:54 AM58 °FOvercast.12 mph70%30.19 "Hg10 mi
10:54 AM56 °FOvercast.13 mph81%30.19 "Hg9 mi
9:54 AM55 °FOvercast.6 mph87%30.19 "Hg9 mi
8:54 AM54 °FFog.10 mph93%30.18 "Hg6 mi
8:02 AM54 °FFog.8 mph94%30.14 "Hg4 mi
7:54 AM54 °FFog.6 mph93%30.17 "Hg4 mi
6:54 AM54 °FMostly cloudy.6 mph93%30.16 "Hg10 mi
Weather by CustomWeather, © 2015

See weather overviewHow to use our weather pages